CAPE
0 0 0 0 0 0 0 0 0 0 0 0 0 0 0 0 0 0 0 0 0 0 59 986 1415 2347 2234 2016 1735 1512 1445 1423 1479 1379 1057 884 781 789 794 885 827 689 648
0 0 0 0 0 0 0 0 0 0 0 0 0 0 0 0 0 0 0 0 0 0 0 70 995 1987 2499 2325 1753 1500 1388 1314 1318 1399 1050 727 530 534 481 696 638 555 561
0 0 0 0 0 0 0 0 0 0 0 0 0 0 0 0 0 0 0 0 0 0 0 6 341 1442 1819 2039 1755 1481 1391 1135 1195 1273 1108 797 502 381 303 383 535 485 473
0 0 0 0 0 0 0 0 0 0 0 0 0 0 0 0 0 0 0 0 0 0 0 2 64 429 835 1291 1683 1800 1422 1135 1070 1066 1021 824 558 387 264 241 377 453 418
0 0 0 0 0 0 0 0 1 2 1 0 1 0 0 0 0 0 0 0 0 0 0 0 6 44 217 869 1216 1675 1634 1402 1076 846 754 689 617 456 283 174 227 349 382
0 0 0 1 0 0 0 0 2 1 2 4 1 0 0 0 0 0 0 0 0 0 0 0 0 301 53 296 886 1078 1558 1466 989 768 594 582 615 508 301 177 137 246 327
0 0 0 0 1 1 3 5 7 6 3 6 5 1 0 0 2 0 3 5 8 2 0 0 0 40 322 45 254 759 1006 1305 1476 846 591 493 314 488 314 190 164 79 252
0 0 1 2 4 1 3 5 6 10 6 11 16 10 0 0 0 0 0 0 0 6 2 0 0 5 194 377 280 378 742 1062 1063 1044 636 493 585 351 222 195 174 164 191
2 2 2 2 2 3 4 4 6 13 14 11 14 18 13 8 17 0 0 0 0 0 33 15 6 55 160 324 322 297 125 51 208 551 678 408 351 267 224 216 287 237 195
1 1 2 1 1 2 2 5 7 10 12 15 12 14 13 24 38 14 0 0 0 0 0 17 90 182 281 84 4 3 1 1 0 5 274 402 369 271 95 212 205 206 255
0 0 1 0 0 1 5 7 6 7 10 17 18 13 9 12 10 38 16 6 8 12 0 11 16 14 8 6 6 7 3 0 0 1 0 201 371 456 368 290 264 163 209
0 0 0 0 1 2 4 6 7 8 9 11 15 16 15 26 20 32 15 13 19 22 10 51 24 15 14 13 12 9 4 1 0 2 2 2 39 158 108 421 365 313 294
0 0 0 0 0 2 3 6 7 6 7 7 11 18 9 12 23 17 18 16 22 23 23 45 15 17 15 14 18 8 9 3 2 3 3 3 4 3 3 149 359 342 262
0 0 0 0 1 1 1 4 5 4 11 8 12 18 17 15 18 19 23 23 32 30 54 29 6 19 11 10 14 8 12 9 6 5 8 8 8 6 4 2 2 66 159
0 0 0 0 0 1 1 4 6 5 7 10 10 20 19 17 19 14 25 19 17 46 46 5 20 5 8 10 15 12 16 15 9 12 9 16 14 14 12 10 9 6 4
0 0 0 0 0 1 1 2 4 4 6 11 11 12 17 15 9 10 21 25 16 17 34 10 9 7 15 15 15 15 15 10 15 12 12 14 22 19 17 14 13 13 16
0 0 0 0 0 0 1 2 1 3 5 8 10 15 12 12 12 12 13 13 14 10 29 10 11 5 6 9 9 16 17 11 19 17 19 12 12 10 13 14 12 10 9
1 0 0 0 0 0 1 2 2 3 3 6 8 8 12 17 10 11 13 8 7 9 10 7 7 10 9 8 2 3 12 16 18 17 13 11 9 12 8 9 10 13 9
3 0 0 2 1 0 0 1 2 1 2 4 6 6 13 14 12 11 12 10 6 7 5 6 4 6 6 7 5 2 2 9 11 12 7 11 11 9 6 3 4 5 5
1 1 0 2 2 0 0 0 0 1 1 2 4 4 7 11 21 15 12 8 8 5 6 4 3 3 3 3 4 3 4 4 6 7 13 6 3 8 9 6 5 5 5
1 0 0 1 1 0 2 0 0 0 0 1 1 1 3 7 12 16 12 13 6 4 4 3 4 2 2 2 2 3 4 3 2 2 6 13 12 4 9 7 7 8 7
0 0 1 2 5 4 2 0 0 0 0 0 1 0 0 0 1 8 10 7 7 4 7 3 3 4 2 3 5 3 2 4 2 2 3 4 14 12 2 7 7 5 5
1 0 0 1 5 7 3 0 0 4 3 3 2 1 0 0 0 0 1 3 5 6 6 2 4 5 2 3 3 0 1 2 3 0 2 5 6 4 1 0 4 3 3
2 2 1 2 8 7 1 0 0 4 7 7 3 3 3 1 0 0 0 0 4 11 13 13 10 15 5 3 3 1 0 0 0 0 1 0 5 15 6 1 0 3 0
2 2 3 1 4 6 0 0 0 2 4 6 8 4 2 1 0 0 0 0 0 1 3 3 3 1 1 0 0 0 0 0 0 1 4 1 2 4 11 9 1 0 0
3 5 4 2 1 5 0 0 0 2 5 6 7 7 3 5 1 0 0 0 0 1 0 0 0 1 1 2 0 4 0 0 0 0 2 2 2 3 3 5 6 4 6
CIN
0 0 0 0 0 0 0 0 0 0 0 0 0 0 0 0 0 0 0 0 0 0 -178 -7 0 0 -0 -5 -22 -30 -29 -36 -15 -17 -27 -38 -45 -31 -28 -2 -3 -3 -4
0 0 0 0 0 0 0 0 0 0 0 0 0 0 0 0 0 0 0 0 0 0 0 -147 -17 0 0 -0 -17 -35 -40 -32 -18 -17 -22 -36 -44 -33 -38 -26 -6 -9 -4
0 0 0 0 0 0 0 0 0 0 0 0 0 0 0 0 0 0 0 0 0 0 0 0 -58 0 0 -1 -8 -20 -31 -32 -27 -18 -20 -36 -35 -50 -26 -41 -17 -10 -4
0 0 0 0 0 0 0 0 0 0 0 0 0 0 0 0 0 0 0 0 0 0 0 0 -133 -42 -11 0 -3 -7 -21 -36 -38 -40 -59 -53 -36 -149 -41 -28 -39 -9 -15
0 0 0 0 0 0 0 0 0 0 0 0 0 0 0 0 0 0 0 0 0 0 0 0 -1 -110 -74 -0 -3 -1 -4 -10 -31 -48 -40 -43 -29 -92 -80 -16 -34 -29 -13
0 0 0 0 0 0 0 0 0 0 0 0 0 0 0 0 0 0 0 0 0 0 0 0 0 -7 -122 -41 -0 -1 -0 -0 -18 -26 -35 -13 -32 -43 -46 -19 -16 -38 -15
0 0 0 0 0 0 0 0 0 0 0 0 0 0 0 0 0 0 0 0 0 0 0 0 0 -6 -6 -115 -30 0 0 0 0 -9 -16 -5 -40 -44 -82 -25 -10 -3 -16
0 0 0 0 0 0 0 0 0 0 0 0 0 0 0 0 0 0 0 0 0 0 0 0 0 0 -2 -0 -10 -3 -0 0 0 0 -8 -39 -22 -32 -27 -22 -18 -10 -15
0 0 0 0 0 0 0 0 0 0 0 0 0 0 0 0 0 0 0 0 0 0 -1 0 0 -15 -13 0 -0 -2 -59 -70 -4 -1 -2 -15 -18 -16 -14 -15 -5 -10 -14
0 0 0 0 0 0 0 0 0 0 0 0 0 0 0 0 0 0 0 0 0 0 0 -6 -20 0 0 0 0 0 0 0 0 -2 -6 -7 -3 -8 -11 -3 -3 -13 -11
0 0 0 0 0 0 0 0 0 0 0 0 0 0 0 0 0 0 0 0 0 0 -0 -46 -25 0 0 0 0 0 0 0 0 0 0 -1 -1 -2 -2 -2 -6 -12 -8
0 0 0 0 0 0 0 0 0 0 0 0 0 0 0 0 0 0 -0 0 0 0 -0 0 -5 0 0 0 0 0 0 0 0 0 0 0 -10 -15 -26 -47 -12 -3 -1
0 0 0 0 0 0 0 0 0 0 0 0 0 0 0 0 0 0 0 0 0 0 0 0 -3 0 0 0 0 0 0 0 0 0 0 0 0 0 0 -54 -5 -2 0
0 0 0 0 0 0 0 0 0 0 0 0 0 0 0 0 0 0 0 0 0 0 0 0 0 -0 0 0 0 0 0 0 0 0 0 0 0 0 0 0 0 -32 0
0 0 0 0 0 0 0 0 0 0 0 0 0 0 0 0 0 0 0 0 0 0 0 0 0 0 0 0 0 0 0 0 0 0 0 0 0 0 0 0 0 0 0
0 0 0 0 0 0 0 0 0 0 0 0 0 0 0 0 0 0 0 0 0 0 0 0 0 0 0 0 0 0 0 0 0 0 0 0 0 0 0 0 0 0 0
0 0 0 0 0 0 0 0 0 0 0 0 0 0 0 0 0 0 0 0 0 0 0 0 0 0 0 0 0 0 0 0 0 0 0 0 0 0 0 0 0 0 0
0 0 0 0 0 0 0 0 0 0 0 0 0 0 0 0 0 0 0 0 0 0 0 0 0 0 0 0 0 0 0 0 0 0 0 0 0 0 0 0 0 0 0
0 0 0 0 0 0 0 0 0 0 0 0 0 0 0 0 0 0 0 0 0 0 0 0 0 0 0 0 0 0 0 0 0 0 0 0 0 0 0 0 0 0 0
0 0 0 0 0 0 0 0 0 0 0 0 0 0 0 0 0 0 0 0 0 0 0 0 0 0 0 0 0 0 0 0 0 0 0 0 0 0 0 0 0 0 0
0 0 0 0 0 0 0 0 0 0 0 0 0 0 0 0 0 0 0 0 0 0 0 0 0 0 0 0 0 0 0 0 0 0 0 0 0 0 0 0 0 0 0
0 0 0 0 0 0 -0 0 0 0 0 0 0 0 0 0 0 0 0 0 0 0 0 0 0 0 0 0 0 0 0 0 0 0 0 0 0 0 0 0 0 0 0
0 0 0 0 0 0 0 0 0 0 0 0 0 0 0 0 0 0 0 0 0 0 0 0 0 0 0 0 0 0 0 0 0 0 0 0 0 0 0 0 0 0 0
0 0 0 0 0 0 0 0 0 0 0 0 0 0 0 0 0 0 0 0 0 0 0 0 0 0 0 0 0 0 0 0 0 0 0 0 0 0 0 0 0 0 0
0 0 0 0 0 0 0 0 0 0 0 0 0 0 0 0 0 0 0 0 0 0 0 0 0 0 0 0 0 0 0 0 0 0 0 0 0 0 0 0 0 0 0
0 0 0 0 0 0 0 0 0 0 0 0 0 0 0 0 0 0 0 0 0 0 0 0 0 0 0 0 0 0 0 0 0 0 0 0 0 0 0 0 0 0 0
Wind_Speed
7 7 7 7 8 9 9 10 10 10 11 12 12 13 13 13 14 9 9 17 20 20 20 22 25 23 23 21 24 24 23 24 22 23 23 21 22 21 20 18 17 17 18
8 7 7 8 8 9 9 10 10 11 11 12 13 13 14 14 14 15 12 13 19 20 21 22 24 26 23 23 24 25 26 23 23 23 22 21 21 21 21 20 19 19 19
8 8 7 7 8 8 11 9 10 10 10 11 14 14 13 14 13 15 14 12 14 18 18 21 23 21 21 19 21 25 24 24 22 22 21 19 20 20 21 22 21 21 21
9 7 6 7 9 8 9 9 10 10 11 11 12 12 12 13 16 16 14 13 13 13 13 18 19 20 21 20 19 21 23 23 23 23 23 22 24 23 22 24 23 23 22
9 7 7 7 9 8 7 8 9 10 11 11 12 12 13 13 14 13 16 16 16 16 12 16 16 15 17 19 18 21 22 23 23 23 21 21 23 21 23 27 25 24 23
9 8 6 7 8 7 7 9 11 10 11 12 13 13 13 12 10 10 12 12 14 16 16 16 12 10 13 15 19 21 25 25 24 24 26 21 17 16 18 25 26 23 24
8 8 6 7 8 7 8 10 9 12 10 11 12 13 9 10 5 9 12 9 12 13 14 14 11 7 6 14 17 21 25 26 23 23 24 19 17 18 19 21 25 28 24
8 7 7 7 7 7 9 10 11 9 8 10 8 10 9 6 8 17 7 9 14 8 11 14 14 14 8 5 10 18 22 22 21 22 20 16 16 17 14 17 20 24 26
7 8 8 7 7 7 7 9 10 11 8 9 9 4 6 5 15 7 12 7 12 12 13 9 11 12 11 7 7 10 12 13 14 15 18 16 13 16 15 16 19 22 26
6 8 8 7 8 7 9 8 8 9 9 9 8 3 8 10 4 10 8 10 12 12 14 8 6 4 7 3 13 16 14 6 10 13 14 14 17 21 22 20 22 17 19
6 7 8 9 9 7 8 9 9 9 7 7 8 9 10 8 10 7 13 10 9 10 10 10 8 8 11 10 10 13 16 12 7 7 11 14 17 20 25 25 24 19 18
4 9 9 9 8 8 8 8 9 10 9 8 8 9 8 6 6 7 6 11 11 7 10 6 7 8 8 9 14 22 23 19 16 6 4 7 11 10 10 20 21 19 17
5 9 10 9 7 8 8 8 9 8 9 9 10 9 9 9 8 7 9 8 7 7 5 5 6 6 8 8 12 21 25 24 23 22 20 14 7 7 9 6 14 20 19
6 8 8 8 8 8 8 8 6 7 9 9 12 11 9 8 8 7 5 8 6 6 2 5 6 8 6 10 13 25 17 26 26 25 24 25 24 23 26 24 20 5 10
6 8 8 8 8 8 9 8 6 9 9 10 11 12 10 8 8 7 5 5 5 3 3 7 4 9 9 10 12 14 15 28 29 26 26 27 28 29 29 29 26 26 23
6 7 8 8 7 8 9 8 7 10 10 10 10 14 13 10 9 7 6 5 5 7 3 6 6 7 7 9 15 13 13 26 29 27 28 29 30 30 30 29 29 28 27
6 7 8 7 7 8 8 8 9 10 11 12 14 15 17 14 9 9 7 6 5 5 4 3 5 7 9 13 10 10 12 13 16 27 28 29 29 30 30 29 29 29 29
5 6 7 8 8 8 8 9 9 9 11 13 14 16 17 12 14 12 9 10 8 6 2 6 6 6 8 9 8 10 7 10 14 25 29 30 28 30 29 28 28 26 28
4 6 7 8 8 9 9 8 8 9 10 12 13 14 16 18 17 12 12 10 9 8 8 6 5 5 6 5 8 8 10 12 8 21 26 27 29 32 30 31 29 28 27
5 6 6 7 8 10 9 8 8 9 9 11 11 13 15 17 18 16 14 13 11 10 10 9 7 6 5 5 5 6 9 8 10 12 16 19 23 28 30 29 30 27 27
5 6 6 6 7 10 9 9 9 9 10 10 11 11 14 17 23 23 13 15 14 11 10 9 9 7 7 6 6 4 5 7 11 8 10 9 11 12 14 22 23 26 26
7 7 8 8 8 7 13 16 11 10 12 11 11 12 12 15 16 23 25 29 24 14 14 10 9 8 11 7 8 7 4 3 3 8 5 10 9 11 13 14 24 25 25
7 7 7 7 8 8 12 14 13 9 11 11 12 11 11 11 13 12 18 21 26 27 23 14 14 13 9 9 8 9 11 8 6 7 4 8 6 9 9 13 23 25 25
7 7 6 6 6 7 10 12 13 10 10 12 13 12 13 13 15 12 12 14 15 17 17 12 15 14 14 10 6 6 6 8 8 10 11 5 7 6 7 8 24 22 24
7 6 5 5 5 6 8 9 8 8 10 12 11 12 13 13 18 17 12 13 13 13 14 21 22 22 25 27 20 8 8 4 6 7 13 5 6 4 3 6 10 20 21
7 6 6 5 7 5 9 8 5 6 7 8 10 11 19 15 19 18 11 10 11 11 10 11 12 15 18 18 24 16 10 10 5 4 11 5 6 5 2 4 8 11 10
Wind_Direction
30 19 16 10 4 354 351 344 339 332 324 320 314 309 306 300 294 290 287 285 287 283 279 268 257 246 241 227 215 213 213 211 207 203 203 202 197 197 197 201 197 198 191
23 18 13 9 2 353 345 337 335 328 323 319 312 311 303 299 294 289 285 287 284 281 278 275 263 252 238 235 221 213 213 211 206 205 206 204 202 200 200 199 200 194 197
24 15 12 5 358 345 337 335 331 328 320 317 310 308 304 295 291 289 284 279 285 277 272 272 269 253 248 239 227 218 214 209 207 206 203 204 204 204 205 199 200 197 198
24 17 11 4 354 346 342 341 338 331 325 318 314 309 304 300 292 284 279 277 274 276 274 268 258 258 251 250 227 214 214 200 197 201 202 208 215 196 211 208 199 201 197
22 13 9 1 349 345 344 339 334 329 320 318 313 308 304 295 291 289 286 278 269 265 265 261 269 249 251 244 234 219 217 207 209 210 208 207 213 205 208 217 203 201 198
21 11 5 358 352 346 349 345 336 335 323 324 320 310 307 293 291 294 292 282 272 264 262 258 254 260 223 243 235 233 223 215 220 226 217 217 209 211 219 223 210 201 200
20 11 6 357 355 352 346 346 340 336 333 337 321 328 307 304 290 337 335 314 296 274 260 257 254 245 251 218 238 239 236 229 219 221 216 227 215 211 215 227 219 208 203
16 9 4 3 357 350 352 351 345 340 331 351 334 310 338 319 347 322 316 330 348 299 272 254 250 245 244 251 232 232 240 238 239 231 229 228 228 215 215 223 236 221 203
15 10 9 5 0 357 353 351 343 342 328 337 350 318 327 324 333 304 319 358 344 343 335 256 247 236 251 251 240 234 235 241 247 247 234 223 223 231 222 226 232 231 216
21 15 8 4 7 1 358 345 345 343 341 333 329 344 302 294 313 317 321 335 346 330 339 352 17 306 270 18 50 28 14 304 248 234 245 231 222 210 230 230 231 232 234
21 13 10 9 11 4 356 341 348 354 341 329 326 322 313 305 268 264 296 329 343 340 343 329 20 44 55 57 51 37 34 31 19 253 241 231 228 220 217 224 220 223 232
7 20 10 11 8 3 350 349 354 353 351 342 336 324 317 313 308 289 297 307 312 321 320 340 5 47 40 56 51 48 42 40 43 34 239 236 243 236 262 232 209 215 230
16 14 7 5 2 359 352 359 357 352 0 351 337 325 313 303 296 301 293 289 292 317 301 19 2 71 51 58 50 54 45 48 47 53 56 64 67 67 41 240 215 215 220
27 12 6 5 360 358 360 359 359 1 1 356 347 340 323 316 308 303 301 304 299 297 305 255 32 53 54 53 53 56 48 50 51 54 57 60 64 67 64 58 52 239 236
27 17 11 10 0 7 7 353 7 6 6 6 1 346 343 329 317 310 305 293 294 313 305 27 49 18 59 68 64 68 58 60 59 58 58 63 63 64 66 64 59 59 61
37 28 18 13 9 16 13 5 9 8 10 13 10 1 360 346 336 332 322 309 273 270 255 6 44 23 79 96 61 64 61 69 64 60 63 61 65 63 64 64 63 63 60
47 38 31 19 16 23 19 19 18 15 16 14 14 8 8 1 353 352 346 344 334 324 236 75 46 29 45 58 57 71 58 65 64 65 64 63 64 61 60 61 61 61 59
68 51 40 35 27 30 24 24 24 21 21 21 15 18 12 9 13 8 2 6 357 351 339 95 41 42 53 58 56 50 67 67 66 60 65 59 65 62 58 57 56 56 58
91 68 50 39 33 35 29 28 23 26 30 30 22 22 16 16 21 14 14 15 11 21 39 73 69 31 54 32 66 40 47 61 68 61 59 52 56 58 55 55 52 51 53
95 83 61 50 45 46 38 30 31 28 35 38 27 31 28 25 23 22 25 21 23 35 39 48 45 30 15 14 36 56 54 38 41 50 57 61 58 54 52 48 51 46 47
93 84 74 61 58 54 40 38 38 33 35 35 41 33 37 37 39 36 35 30 34 42 45 46 46 39 26 20 20 343 107 90 61 24 55 43 52 51 47 45 46 45 45
96 87 79 71 58 60 54 53 47 47 40 37 36 36 39 36 42 46 41 51 48 43 50 47 43 38 27 10 27 21 8 3 66 23 24 47 42 54 45 40 45 44 44
112 99 84 75 70 67 66 62 57 52 54 44 42 36 41 37 35 45 52 47 49 52 50 51 52 35 20 2 2 45 55 60 60 8 331 61 41 62 53 43 39 42 40
115 106 90 78 79 77 77 74 69 61 57 55 51 45 47 43 43 39 53 55 49 44 48 50 50 46 38 23 6 18 79 95 82 49 354 62 12 52 49 48 39 37 35
120 106 90 82 79 81 82 80 75 73 64 57 50 58 49 50 45 46 49 52 57 49 46 51 56 51 44 42 38 47 35 25 54 35 21 2 13 341 29 43 30 29 30
125 120 105 87 76 74 88 83 80 83 73 72 63 58 54 56 54 50 51 50 56 39 38 41 42 40 41 39 41 42 36 50 38 39 17 360 1 358 171 59 33 22 15